Weather in Charleville-Mézières

France     49°45′20″N   4°42′26″E
temp.,
°C
wind,
m/s
gust,
m/s
humid.,
%
clouds,
%
prec.,
mm/h
press.,
hPa
HPBL,
m
4 march, thu
thu401:00+7s129591 1.1 102422
04:00+7sw139669 0.9 1022102
07:00+7sse129882 1.1 102166
10:00+8sw2494100 0.6 1021275
13:00+10wnw578198 1.9 1020797
16:00+8nnw4683100 1.2 1020651
19:00+6n379291 1.3 1020451
22:00+4n4888100 0.1 1022570
5 march, fri
fri501:00+2n239577 0.1 1023100
04:00+2nne478889 0.0 1023479
07:00+1nne488178 0.0 1025750
10:00+3ne587297 0.0 1027964
13:00+5ne575862 0.0 10271131
16:00+6nne67510 0.0 10271223
19:00+1nne511630 0.0 1029372
22:00−1ne410700 0.0 1031269
6 march, sat
sat601:00−1ne49720 0.0 1032238
04:00−2ne48720 0.0 1032216
07:00−1ne410680 0.0 1032290
10:00+3ene58490 0.0 1032741
13:00+7ene46390 0.0 10321088
16:00+7ene46400 0.0 10291091
19:00+1ene33580 0.0 102937
22:00−1ne23640 0.0 102946
7 march, sun
sun701:00−1ne23590 0.0 102947
04:00−2ne23600 0.0 102745
07:00−2ne22590 0.0 102734
10:00+4ne23420 0.0 1027373
13:00+8nne12320 0.0 10261110
16:00+8n33390 0.0 10241224
19:00+1n346810 0.0 102479
22:00−1nne34798 0.0 102583
8 march, mon
mon801:00−2nne23854 0.0 102546
04:00−2nne22860 0.0 102428
07:00−2ne22840 0.0 102523
10:00+4ene24570 0.0 1025489
13:00+8ese22420 0.0 10251082
16:00+8sw12420 0.0 10231278
19:00+2nnw117414 0.0 102422
22:000ene11837 0.0 102522